[[{"header":{"parameterUnit":"m.s-1","parameterCategory":1,"la1":30.2991,"la2":30.254,"lo1":-89.0895,"lo2":-89.0444,"dy":0.0017,"dx":0.0017,"nx":28,"ny":28,"refTime":"2025-01-09T09:00:00:Z","depth":0,"parameterNumber":2,"parameterNumberName":"U-component_of_WINDS"},"data":[0,0,0,0,0,0,0,0,0,0,0,0,0,0,0,0,0,0,0,0,0,0,0,0,0,0,0,0,0,0,0,0,0,0,0,0,0,0,0,0,0,0,0,0,0,0,0,0,0,0,0,0,0,0,0,0,0,0,-3.7985,-3.7986,0,-3.799,-3.799,-3.7991,-3.7886,-3.7883,-3.788,-3.7878,-3.7886,-3.7888,-3.7891,0,0,0,0,0,0,0,0,0,0,0,0,0,-3.7888,-3.7891,-3.7985,-3.7986,-3.7986,-3.799,-3.799,-3.7991,-3.7886,-3.7883,-3.7879,-3.7876,-3.7885,-3.7888,-3.7891,0,0,0,0,0,0,0,0,0,0,0,0,0,-3.7916,-3.7891,-3.7985,-3.7934,-3.7929,-3.799,-3.799,-3.7991,-3.7887,-3.7883,-3.7879,-3.7875,-3.7883,-3.7888,-3.7892,-3.8003,0,0,-3.7905,-3.7907,0,0,0,0,0,0,0,0,-3.7914,-3.7919,-3.7942,-3.7938,-3.7933,-3.7933,-3.7959,-3.7995,-3.7888,-3.7903,-3.7877,-3.7873,-3.7905,-3.7907,-3.7918,-3.8003,-3.8004,-3.7905,-3.7908,-3.791,-3.7911,0,0,0,0,0,0,0,-3.7913,-3.7919,-3.7987,-3.7942,-3.7937,-3.7912,-3.7911,-3.7965,-3.7928,-3.7902,-3.7894,-3.7896,-3.7902,-3.7914,-3.7917,-3.8004,-3.7905,-3.7909,-3.7912,-3.7913,-3.8183,-3.8187,0,0,0,0,0,0,-3.7917,-3.7918,-3.7987,-3.7988,-3.7913,-3.7917,-3.7916,-3.7937,-3.7927,-3.7921,-3.79,-3.7891,-3.7908,-3.7912,-3.7917,-3.8048,-3.791,-3.7914,-3.7916,-3.8178,-3.8184,-3.8189,0,0,0,0,0,0,-3.7916,-3.7924,-3.7987,-3.7951,-3.7957,-3.7923,-3.7948,-3.794,-3.7951,-3.7925,-3.7918,-3.7918,-3.7905,-3.7911,-3.7982,-3.8046,-3.7916,-3.7919,-3.8173,-3.818,-3.8186,-3.831,0,0,0,0,0,0,-3.7913,-3.7925,-3.7966,-3.7952,-3.7959,-3.8052,-3.7952,-3.7943,-3.7959,-3.7948,-3.7941,-3.7936,-3.7902,-3.7977,-3.7987,-3.805,-3.7923,-3.8167,-3.8176,-3.8184,-3.83,-3.832,-3.8337,0,0,0,0,0,-3.791,-3.8001,-3.7968,-3.7977,-3.801,-3.8056,-3.806,-3.8018,-3.7964,-3.8006,-3.7989,-3.7936,-3.8037,-3.7985,-3.7995,-3.8061,-3.8163,-3.8173,-3.8183,-3.8291,-3.8316,-3.8337,0,0,0,0,0,0,-3.8023,-3.7998,-3.7962,-3.8051,-3.8056,-3.8038,-3.809,-3.8046,-3.8067,-3.8056,-3.8004,-3.8004,-3.8085,-3.8079,-3.8021,-3.8168,-3.8091,-3.8104,-3.8169,-3.8192,-3.8211,-3.8211,-3.7926,0,0,0,0,0,-3.8058,-3.8097,-3.8073,-3.8154,-3.8158,-3.8124,-3.8142,-3.811,-3.8114,-3.8116,-3.8105,-3.8112,-3.8145,-3.8168,-3.8197,-3.8298,-3.8296,-3.8348,-3.8367,-3.8382,-3.8395,-3.8449,-3.8473,-3.8223,-3.8222,-3.8222,0,0,-3.8132,-3.8123,-3.8151,-3.8176,-3.8177,-3.822,-3.8127,-3.8175,-3.8207,-3.8124,-3.8191,-3.8183,-3.8187,-3.8274,-3.8312,-3.8273,-3.8463,-3.8395,-3.8408,-3.8412,-3.8462,-3.8486,-3.8507,-3.823,-3.8228,-3.8227,0,0,-3.8288,-3.8284,-3.8351,-3.8354,-3.8355,-3.8332,-3.8348,-3.8337,-3.8328,-3.8394,-3.8333,-3.837,-3.8428,-3.8434,-3.8445,-3.8604,-3.8556,-3.8614,-3.8713,-3.8767,-3.8787,-3.8804,-3.8862,-3.8884,-3.8626,-3.8627,-3.8627,0,-3.8379,-3.844,-3.8392,-3.8445,-3.8459,-3.8384,-3.8453,-3.8458,-3.847,-3.8482,-3.8436,-3.8508,-3.8506,-3.8594,-3.8633,-3.8643,-3.8662,-3.8616,-3.8787,-3.8804,-3.882,-3.8875,-3.8897,-3.8634,-3.8633,-3.8632,-3.8632,0,-3.8553,-3.8596,-3.865,-3.8663,-3.8683,-3.8744,-3.8706,-3.8732,-3.8697,-3.8679,-3.8748,-3.8742,-3.877,-3.8788,-3.8755,-3.8872,-3.8848,-3.8796,-3.8717,-3.8852,-3.8903,-3.8923,-3.8644,-3.8642,-3.864,-3.8638,0,0,-3.8781,-3.8766,-3.8787,-3.8793,-3.8789,-3.8822,-3.888,-3.8906,-3.893,-3.894,-3.8989,-3.9039,-3.8992,-3.9004,-3.8971,-3.9018,-3.9146,-3.896,-3.8959,-3.8997,-3.9277,-3.9318,-3.9343,-3.9114,-3.9118,-3.9121,-3.9278,0,-3.8934,-3.9031,-3.899,-3.9092,-3.9132,-3.9062,-3.9112,-3.9116,-3.9101,-3.9133,-3.9116,-3.9154,-3.9087,-3.9094,-3.9137,-3.9122,-3.9202,-3.9109,-3.916,-3.9163,-3.9164,-3.9369,-3.9412,-3.956,-3.9297,-3.93,-3.9303,0,-3.9125,-3.9144,-3.925,-3.924,-3.9255,-3.9301,-3.9322,-3.9353,-3.9357,-3.9342,-3.9356,-3.9313,-3.937,-3.929,-3.9369,-3.9307,-3.9325,-3.9321,-3.9326,-3.9331,-3.9242,-3.9382,-3.9606,-3.963,-3.9333,-3.9331,-3.9329,0,-3.9284,-3.9335,-3.9405,-3.9411,-3.9401,-3.9435,-3.9433,-3.9432,-3.945,-3.9469,-3.9481,-3.9506,-3.952,-3.9541,-3.9507,-3.9451,-3.9592,-3.9508,-3.9583,-3.9584,-3.9617,-3.9616,-3.985,-3.9626,-3.9625,-3.9625,-3.9624,0,-3.946,-3.9528,-3.9476,-3.952,-3.9594,-3.9546,-3.9621,-3.9611,-3.9611,-3.9652,-3.9593,-3.9633,-3.9583,-3.9619,-3.9592,-3.9663,-3.9669,-3.966,-3.9653,-3.9667,-3.9669,-3.968,-3.967,-3.9631,-3.9629,-3.9628,-3.9627,0,-3.9651,-3.9618,-3.969,-3.9674,-3.9672,-3.9728,-3.9715,-3.9755,-3.9735,-3.9788,-3.9798,-3.9767,-3.9806,-3.9772,-3.981,-3.9792,-3.9887,-3.9863,-3.9886,-3.988,-3.9957,-3.9952,-4.0209,-4.0241,-3.9994,-3.9997,-3.9999,0,-3.9766,-3.9817,-3.9806,-3.9829,-3.983,-3.9868,-3.9887,-3.9841,-3.9863,-3.9871,-3.9911,-3.9945,-3.997,-4.0036,-4.0017,-4.0046,-4.0025,-4.0113,-4.0029,-4.0042,-4.0029,-4.0027,-4.0033,-4.0131,-4.0134,-4.0136,-4.0138,0,-3.9975,-3.9957,-3.9985,-4.0009,-4.0033,-4.0049,-4.0061,-4.0083,-4.0037,-4.0065,-4.0104,-4.0123,-4.0161,-4.0197,-4.022,-4.0218,-4.0172,-4.0164,-4.0183,-4.0199,-4.0211,-4.0208,-3.9935,-4.0159,-4.0157,-4.0155,-4.0154,-4.0153,-4.0133,-4.0175,-4.0175,-4.0209,-4.0213,-4.0226,-4.0263,-4.0248,-4.0279,-4.0306,-4.0277,-4.0326,-4.0328,-4.0354,-4.0358,-4.0396,-4.036,-4.0387,-4.0394,-4.0402,-4.0414,-4.0203,-4.04,-4.0399,-4.0399,-4.0398,-4.0398,0,-4.0341,-4.0337,-4.0369,-4.0387,-4.0415,-4.0366,-4.0377,-4.0404,-4.0446,-4.0453,-4.0478,-4.0524,-4.0557,-4.0542,-4.0571,-4.0605,-4.0584,-4.0614,-4.0613,-4.0614,-4.0444,-4.0426,-4.0631,-4.0631,-4.0631,-4.063,-4.063,-4.063,-4.0453,-4.0522,-4.0504,-4.0575,-4.0571,-4.0617,-4.0627,-4.0639,-4.0644,-4.0697,-4.0725,-4.0714,-4.0712,-4.0741,-4.077,-4.0765,-4.078,-4.0818,-4.0805,-4.0648,-4.0625,-4.0603,-4.0586,-4.0821,-4.0821,-4.0972,-4.0973,-4.0974]},{"header":{"parameterUnit":"m.s-1","parameterCategory":1,"la1":30.2991,"la2":30.254,"lo1":-89.0895,"lo2":-89.0444,"dy":0.0017,"dx":0.0017,"nx":28,"ny":28,"refTime":"2025-01-09T09:00:00:Z","depth":0,"parameterNumber":3,"parameterNumberName":"V-component_of_WINDS"},"data":[0,0,0,0,0,0,0,0,0,0,0,0,0,0,0,0,0,0,0,0,0,0,0,0,0,0,0,0,0,0,0,0,0,0,0,0,0,0,0,0,0,0,0,0,0,0,0,0,0,0,0,0,0,0,0,0,0,0,-1.5222,-1.5223,0,-1.528,-1.5281,-1.5282,-1.5273,-1.5272,-1.5271,-1.527,-1.533,-1.5332,-1.5335,0,0,0,0,0,0,0,0,0,0,0,0,0,-1.5103,-1.5105,-1.5222,-1.5223,-1.5224,-1.528,-1.5281,-1.5282,-1.5273,-1.5272,-1.5271,-1.527,-1.5329,-1.5332,-1.5335,0,0,0,0,0,0,0,0,0,0,0,0,0,-1.5157,-1.5106,-1.5222,-1.5226,-1.5227,-1.528,-1.5281,-1.5282,-1.5273,-1.5272,-1.527,-1.5269,-1.5328,-1.5332,-1.5335,-1.5388,0,0,-1.5347,-1.5349,0,0,0,0,0,0,0,0,-1.5154,-1.5162,-1.5225,-1.5226,-1.5227,-1.5268,-1.5261,-1.5318,-1.5274,-1.5256,-1.527,-1.5268,-1.5311,-1.5316,-1.533,-1.5391,-1.5394,-1.5347,-1.535,-1.5351,-1.5352,0,0,0,0,0,0,0,-1.5151,-1.5159,-1.5245,-1.5226,-1.5227,-1.5225,-1.5231,-1.5272,-1.5291,-1.5257,-1.5257,-1.5264,-1.5311,-1.5326,-1.5331,-1.5395,-1.5347,-1.5351,-1.5353,-1.5354,-1.5502,-1.5503,0,0,0,0,0,0,-1.5146,-1.5156,-1.5243,-1.5247,-1.5186,-1.5228,-1.5235,-1.5256,-1.529,-1.5294,-1.5265,-1.5263,-1.532,-1.5327,-1.5333,-1.5397,-1.5351,-1.5355,-1.5357,-1.55,-1.5502,-1.5504,0,0,0,0,0,0,-1.5143,-1.5154,-1.5241,-1.5202,-1.5212,-1.5232,-1.5256,-1.5258,-1.5274,-1.5296,-1.5299,-1.5277,-1.532,-1.5328,-1.5375,-1.5399,-1.5356,-1.536,-1.5498,-1.5501,-1.5503,-1.5526,0,0,0,0,0,0,-1.514,-1.5153,-1.5173,-1.5202,-1.5215,-1.5282,-1.5257,-1.526,-1.528,-1.5278,-1.5308,-1.5312,-1.5319,-1.5369,-1.5378,-1.5404,-1.5363,-1.5496,-1.5499,-1.5502,-1.5523,-1.5529,-1.5534,0,0,0,0,0,-1.5136,-1.5178,-1.5175,-1.5185,-1.5241,-1.5283,-1.529,-1.5297,-1.5282,-1.5303,-1.5317,-1.5311,-1.5395,-1.5374,-1.5384,-1.5411,-1.5494,-1.5498,-1.5502,-1.5521,-1.5528,-1.5534,0,0,0,0,0,0,-1.5152,-1.5182,-1.5178,-1.5231,-1.5255,-1.5282,-1.5308,-1.5305,-1.5333,-1.5331,-1.5338,-1.5345,-1.5392,-1.5406,-1.5382,-1.5464,-1.5442,-1.5448,-1.5453,-1.546,-1.5465,-1.5462,-1.5366,0,0,0,0,0,-1.5162,-1.5194,-1.5218,-1.5262,-1.5274,-1.5289,-1.5308,-1.5311,-1.5336,-1.5346,-1.5363,-1.5388,-1.5419,-1.544,-1.5471,-1.5524,-1.5531,-1.5548,-1.5553,-1.5558,-1.5563,-1.5592,-1.56,-1.5516,-1.5516,-1.5516,0,0,-1.5182,-1.5202,-1.5222,-1.5266,-1.5284,-1.5317,-1.5297,-1.5333,-1.5358,-1.5351,-1.5397,-1.541,-1.5438,-1.5488,-1.5511,-1.5501,-1.5588,-1.5562,-1.5566,-1.5569,-1.5597,-1.5605,-1.5612,-1.5518,-1.5518,-1.5518,0,0,-1.5236,-1.5255,-1.5293,-1.5312,-1.5341,-1.535,-1.5359,-1.5387,-1.5395,-1.5441,-1.5436,-1.5465,-1.552,-1.5539,-1.5557,-1.5617,-1.5613,-1.5626,-1.5655,-1.5684,-1.569,-1.5696,-1.5718,-1.5726,-1.5631,-1.5632,-1.5632,0,-1.5258,-1.5308,-1.5314,-1.535,-1.5369,-1.5364,-1.5403,-1.5421,-1.5458,-1.5471,-1.5459,-1.5527,-1.5545,-1.56,-1.5614,-1.5628,-1.5639,-1.5624,-1.5689,-1.5695,-1.57,-1.5721,-1.573,-1.5633,-1.5633,-1.5633,-1.5633,0,-1.5334,-1.5368,-1.5396,-1.5431,-1.5453,-1.5491,-1.5502,-1.5523,-1.5524,-1.5535,-1.5581,-1.5602,-1.5637,-1.5649,-1.5651,-1.5704,-1.5697,-1.5687,-1.5666,-1.571,-1.573,-1.5738,-1.5635,-1.5635,-1.5634,-1.5634,0,0,-1.5402,-1.5439,-1.5449,-1.5465,-1.5495,-1.5521,-1.5558,-1.5592,-1.561,-1.5635,-1.5666,-1.5712,-1.5702,-1.5721,-1.5725,-1.575,-1.5796,-1.5736,-1.5737,-1.5747,-1.5857,-1.5865,-1.5874,-1.5793,-1.5794,-1.5795,-1.5854,0,-1.5459,-1.5525,-1.553,-1.5589,-1.5621,-1.5615,-1.5647,-1.5669,-1.5679,-1.5708,-1.5719,-1.5751,-1.5736,-1.5748,-1.5772,-1.5785,-1.5818,-1.5781,-1.5822,-1.5824,-1.5817,-1.5884,-1.5894,-1.5948,-1.5862,-1.5863,-1.5864,0,-1.5536,-1.5563,-1.5625,-1.565,-1.5663,-1.5692,-1.5723,-1.575,-1.5774,-1.578,-1.5801,-1.58,-1.5838,-1.5814,-1.5866,-1.5841,-1.5857,-1.5866,-1.5869,-1.5874,-1.5848,-1.5892,-1.5966,-1.5975,-1.5877,-1.5876,-1.5875,0,-1.558,-1.5632,-1.5675,-1.5689,-1.5719,-1.5739,-1.5753,-1.5775,-1.5795,-1.5821,-1.5834,-1.5865,-1.5882,-1.5905,-1.5913,-1.5895,-1.5965,-1.5942,-1.5971,-1.5971,-1.5987,-1.5986,-1.6066,-1.5996,-1.5996,-1.5996,-1.5996,0,-1.5644,-1.5683,-1.5695,-1.5722,-1.5765,-1.577,-1.5812,-1.5824,-1.5844,-1.5873,-1.587,-1.5897,-1.5905,-1.5934,-1.594,-1.5982,-1.599,-1.5996,-1.5997,-1.5997,-1.5996,-1.6009,-1.6005,-1.5998,-1.5998,-1.5997,-1.5997,0,-1.5701,-1.5711,-1.5759,-1.5783,-1.579,-1.582,-1.5841,-1.5867,-1.5876,-1.5912,-1.5921,-1.5936,-1.597,-1.5979,-1.602,-1.6024,-1.6073,-1.6071,-1.6065,-1.6066,-1.6094,-1.6092,-1.6186,-1.6198,-1.612,-1.6121,-1.6121,0,-1.5742,-1.5772,-1.5799,-1.5818,-1.5832,-1.5863,-1.5883,-1.5889,-1.5909,-1.5938,-1.5961,-1.5993,-1.602,-1.6074,-1.6088,-1.6119,-1.6118,-1.6148,-1.6122,-1.6121,-1.6119,-1.6117,-1.612,-1.6154,-1.6154,-1.6155,-1.6156,0,-1.5814,-1.5818,-1.5846,-1.5876,-1.59,-1.5924,-1.5947,-1.5962,-1.5971,-1.5995,-1.6029,-1.6049,-1.609,-1.6123,-1.6154,-1.6167,-1.6163,-1.6163,-1.6172,-1.6172,-1.6168,-1.6171,-1.608,-1.6162,-1.6161,-1.6161,-1.616,-1.616,-1.5865,-1.5891,-1.5914,-1.5945,-1.5963,-1.5984,-1.601,-1.6022,-1.605,-1.6084,-1.6085,-1.6122,-1.6145,-1.6186,-1.6201,-1.623,-1.6221,-1.6233,-1.6236,-1.6239,-1.6242,-1.6163,-1.6235,-1.6235,-1.6235,-1.6235,-1.6235,0,-1.5937,-1.5952,-1.5981,-1.6013,-1.6037,-1.603,-1.6055,-1.6077,-1.6109,-1.613,-1.6156,-1.6195,-1.6227,-1.6243,-1.6274,-1.6294,-1.6293,-1.6302,-1.6301,-1.6304,-1.6248,-1.6238,-1.6302,-1.6302,-1.6302,-1.6302,-1.6302,-1.6302,-1.5978,-1.6021,-1.6027,-1.6078,-1.6092,-1.6128,-1.6143,-1.6162,-1.6179,-1.6223,-1.6249,-1.6259,-1.6278,-1.631,-1.6339,-1.6343,-1.6355,-1.6365,-1.6368,-1.6315,-1.6308,-1.6302,-1.6292,-1.6367,-1.6368,-1.6422,-1.6423,-1.6423]}]]